Regional Weather Roundup
Issued by NWS

Home | Current Version | Previous Version | Graphics & Text | Print | Product List | Glossary On
Versions: 1 2 3 4 5 6 7 8 9 10 11 12 13 14 15 16 17 18 19 20 21 22 23 24 25 26 27 28 29 30 31 32 33 34 35 36 37 38 39 40 41 42 43 44 45 46 47 48 49 50
000
ASUS43 KOAX 121310
RWRNE

WEATHER ROUNDUP FOR NEBRASKA
NATIONAL WEATHER SERVICE OMAHA NE
800 AM CDT SAT JUL 12 2014

NOTES: SATELLITE DATA IS BEING USED TO AUGMENT CLOUD COVER ABOVE
       12000 FEET.
       "FAIR" INDICATES FEW OR NO CLOUDS BELOW 12,000 FEET WITH NO
       SIGNIFICANT WEATHER AND/OR OBSTRUCTIONS TO VISIBILITY.

  * THESE STATIONS DO NOT REPORT WEATHER SUCH AS RAIN...SNOW OR FOG.

NEZ001>004-019>022-054>056-121400-
NEBRASKA PANHANDLE

CITY           SKY/WX    TMP DP  RH WIND       PRES   REMARKS
SCOTTSBLUFF    PTSUNNY   64  60  87 CALM      30.18R
ALLIANCE       CLOUDY    62  58  86 N7        30.17R
CHADRON        PTSUNNY   63  60  90 W5        30.15R
KIMBALL        CLOUDY    62  61  97 W7        30.19R
SIDNEY         CLOUDY    63  61  93 NW3       30.17S
$$

NEZ057>060-069>072-079>082-121400-
SOUTHWEST NEBRASKA

CITY           SKY/WX    TMP DP  RH WIND       PRES   REMARKS
NORTH PLATTE   CLOUDY    70  67  90 CALM      30.06R
IMPERIAL       PTSUNNY   69  66  90 NW12      30.08R
LEXINGTON      PTSUNNY   73  71  94 NE3       30.02R FOG
MCCOOK         PTSUNNY   73  70  90 N6        30.02R
OGALLALA       CLOUDY    65  64  94 NW6       30.11R
$$

NEZ005>010-023>029-035>040-094-121400-
NORTH CENTRAL NEBRASKA

CITY           SKY/WX    TMP DP  RH WIND       PRES   REMARKS
VALENTINE      CLOUDY    69  66  90 N6        30.10R
AINSWORTH      CLOUDY    66  66  99 N7        30.10R FOG
BROKEN BOW     CLOUDY    71  69  93 E8        30.03R FOG
O`NEILL        PTSUNNY   68  63  84 SE3       30.05R
ORD            CLOUDY    68  66  93 SE6       30.00R
THEDFORD       CLOUDY    67  67  97 N6        30.10R
$$

NEZ041-046>049-061>064-073>077-083>087-121400-
SOUTH CENTRAL NEBRASKA

CITY           SKY/WX    TMP DP  RH WIND       PRES   REMARKS
GRAND ISLAND   PTSUNNY   72  69  90 SE13      29.98F
AURORA         PTSUNNY   71  71  98 SE8       29.99F
HASTINGS       MOSUNNY   73  63  70 SE5       30.00F
HEBRON         PTSUNNY   74  66  77 CALM      30.00F
HOLDREGE       PTSUNNY   71  61  72 CALM      30.00S
KEARNEY *      PTSUNNY   70  64  83 E5        30.00S
YORK           PTSUNNY   72  70  94 SE7       30.00F
$$

NEZ011>018-030>034-042>045-121400-
NORTHEAST NEBRASKA

CITY           SKY/WX    TMP DP  RH WIND       PRES   REMARKS
NORFOLK        LGT RAIN  69  67  93 SE15      29.96F
ALBION         CLOUDY    67  66  97 SE9       29.99R
BLAIR          CLOUDY    72  67  84 E8        30.00F
TEKAMAH        CLOUDY    73  69  87 SE5       29.99F
WAYNE          LGT RAIN  69  68  96 S12       29.99S
$$

NEZ050>053-065>068-078-088>093-121400-
SOUTHEAST NEBRASKA

CITY           SKY/WX    TMP DP  RH WIND       PRES   REMARKS
LINCOLN        CLOUDY    77  72  84 CALM      30.00F
OMAHA EPPLEY   CLOUDY    73  67  81 SE6       29.99F
BEATRICE       PTSUNNY   71  66  84 E3        30.01F
FALLS CITY     PTSUNNY   76  70  82 S5        30.01S
NEBRASKA CITY  CLOUDY    75  69  82 CALM      30.01F
PLATTSMOUTH    CLOUDY    74  72  91 E5        30.00F
$$

NEZ044-045-051>053-067-121400-
OMAHA AREA

CITY           SKY/WX    TMP DP  RH WIND       PRES   REMARKS
OMAHA EPPLEY   CLOUDY    73  67  81 SE6       29.99F
BLAIR          CLOUDY    72  67  84 E8        30.00F
MILLARD        CLOUDY    74  69  81 E5        29.99F
PLATTSMOUTH    CLOUDY    74  72  91 E5        30.00F
WAHOO          FAIR      73  69  87 E3        30.00S
$$


USA.gov is the U.S. government's official web portal to all federal, state and local government web resources and services.